Regional Weather Roundup
Issued by NWS Green Bay, WI

Home | Current Version | Previous Version | Graphics & Text | Print | Product List | Glossary Off
Versions: 1 2 3 4 5 6 7 8 9 10 11 12 13 14 15 16 17 18 19 20 21 22 23 24 25 26 27 28 29 30 31 32 33 34 35 36 37 38 39 40 41 42 43 44 45 46 47 48 49 50

000
ASUS43 KGRB 211610
RWRGRB

NORTH-CENTRAL AND NORTHEAST WISCONSIN REGIONAL WEATHER ROUNDUP
NATIONAL WEATHER SERVICE GREEN BAY WI
1100 AM CDT TUE OCT 21 2014

WIZ005-009-010>012-018-019-211700-
NORTH CENTRAL WISCONSIN

CITY           SKY/WX    TMP DP  RH WIND       PRES   REMARKS
IRONWOOD       CLOUDY    39  34  81 E9        30.24S
MANITOWISH WTR CLOUDY    37  35  90 E3        30.25R
ARBOR VITAE    CLOUDY    39  35  84 CALM      30.25S
EAGLE RIVER    CLOUDY    39  34  80 NE7       30.25S
LAND O LAKES   CLOUDY    38  34  86 N3        30.25F
RHINELANDER    CLOUDY    39  33  79 NE6       30.25S
PHILLIPS       CLOUDY    40  34  81 NE7       30.24R
ANTIGO         CLOUDY    41  34  77 N8        30.24S
TOMAHAWK       CLOUDY    39  34  80 CALM      30.25S
MERRILL        CLOUDY    41  35  77 NE8       30.25S
$$

WIZ013-073-211700-
NORTHEAST WISCONSIN

CITY           SKY/WX    TMP DP  RH WIND       PRES   REMARKS
IRON MOUNTAIN  MOSUNNY   44  32  62 N9        30.25R
MARINETTE      MOSUNNY   46  34  61 N9        30.23S
OCONTO         MOSUNNY   45  34  65 NE8       30.24R
$$

WIZ017-030-035>037-045-211700-
CENTRAL WISCONSIN

CITY           SKY/WX    TMP DP  RH WIND       PRES   REMARKS
MEDFORD        CLOUDY    43  35  74 NE8       30.24R
WAUSAU         CLOUDY    43  35  73 E8        30.24R
MOSINEE        CLOUDY    43  37  81 NE6       30.25R
MARSHFIELD     CLOUDY    47  37  68 E7        30.23R
WISC RAPIDS    CLOUDY    46  35  65 E8        30.26R
STEVENS POINT  CLOUDY    42  33  71 NE8       30.25S
WAUPACA        CLOUDY    46  35  67 NE8       30.26R
SHAWANO        CLOUDY    47  37  68 NE9       30.25S
CLINTONVILLE   CLOUDY    45  34  65 N8        30.25R
$$

WIZ038-039-048-051-211700-
FOX VALLEY

CITY           SKY/WX    TMP DP  RH WIND       PRES   REMARKS
NWS GREEN BAY  CLOUDY    46  36  68 N14       30.24R
APPLETON       CLOUDY    43  36  75 N13       30.24R
OSHKOSH        CLOUDY    45  38  76 N13       30.23R
FOND DU LAC    CLOUDY    45  38  76 N12       30.24R
$$

WIZ022-050-052-211700-
EAST CENTRAL WISCONSIN

CITY           SKY/WX    TMP DP  RH WIND       PRES   REMARKS
STURGEON BAY   CLOUDY    46  36  66 N15G21    30.23R
MANITOWOC      CLOUDY    47  36  65 N13       30.22R HAZE
SHEBOYGAN      CLOUDY    47  37  68 N8        30.21R
$$

LMZ563-521-522-541>543-211700-
LAKESHORE

STATION/POSITION TIME  TEMP    WIND        PRES    VSBY  WAVE
                       AIR SEA DIR/SP/G                  HT/PER
                 (UTC) (F)     (DEG/KT/KT) (MB)    (MI)  (FT/S)
SHEBOYGAN LKSHOR 1600   46 49  360/ 22/ 23 1023.5R
KEWAUNEE LKSHORE 1600   46      20/  9/ 13 1022.3R
TWO RIVERS CG    1500   45                 1022.6      6   3
NORTHPORT PIER   1600   44     360/ 13/ 19 1023.7S
N MID LAKE BUOY  1600   44 51   30/ 16/ 19 1023.5R         3/ 5
STURGEON BAY CG  1500   45 48  360/  8     1023.2      6   2
CHAMBERS ISLAND  1600   46     350/ 14/ 18 1023.7S
MENOMINEE LKSHOR 1600   45      10/ 12/ 15 1024.3S
$$



USA.gov is the U.S. government's official web portal to all federal, state and local government web resources and services.